Temp
46 47 46 46 46 46 45 45 46 47 48 50 51 52 52 52 53 55 53 58 62 65 67 68 69 70 71 72 73 73 74 74 74 73 73 73 73 74 73 73 73 73 72
45 46 45 46 45 45 45 44 45 45 46 48 49 51 51 51 52 53 55 54 60 63 65 67 68 69 70 70 71 72 74 74 74 73 72 72 72 72 73 72 72 72 71
46 45 44 43 44 44 44 44 45 45 44 47 46 49 49 50 52 53 54 54 54 59 62 65 67 68 68 69 70 71 72 73 73 73 73 72 72 72 72 72 72 72 71
46 44 43 43 43 43 42 42 42 42 42 42 43 45 46 48 51 52 53 53 53 55 57 62 63 64 66 67 68 68 69 71 72 72 72 72 72 72 72 72 72 71 70
46 44 42 42 42 41 40 41 41 40 39 40 43 45 46 46 47 52 51 52 52 53 53 57 60 60 63 65 66 67 68 69 69 69 71 72 71 71 72 72 72 71 70
45 42 41 41 41 40 39 40 39 39 39 40 45 45 44 47 48 47 47 53 51 53 52 53 52 53 59 64 65 67 68 68 69 69 69 70 71 71 71 72 72 71 70
44 42 40 40 40 38 38 39 39 38 37 39 38 38 42 45 46 46 46 47 50 52 52 52 51 52 54 61 64 65 66 68 69 69 70 70 70 71 71 72 72 71 70
42 41 39 38 38 36 37 37 37 36 36 38 35 35 32 38 42 46 48 46 47 49 50 52 51 53 52 52 55 62 64 66 67 68 68 69 70 71 72 72 72 72 71
40 40 39 38 37 37 35 36 35 35 33 35 37 35 30 30 36 41 44 46 45 45 46 50 51 52 53 50 54 56 60 62 64 64 64 65 66 67 69 72 71 72 72
40 40 39 38 37 36 35 35 38 35 34 31 34 39 36 34 30 31 38 41 44 45 44 47 49 48 50 51 52 52 55 57 59 61 62 63 64 65 65 67 72 71 72
38 38 38 37 35 34 35 35 34 34 33 32 31 31 32 33 34 31 30 34 40 43 45 45 46 47 49 48 49 51 54 56 57 57 59 60 62 63 64 65 66 70 71
35 36 37 35 34 34 34 34 34 33 32 32 32 31 31 30 30 30 29 31 32 37 41 42 43 44 46 47 49 50 52 54 55 56 56 57 59 60 61 63 64 65 69
33 34 34 34 33 33 33 33 32 31 31 30 30 30 31 32 33 32 30 29 28 33 34 38 40 42 45 45 46 46 49 52 54 55 55 55 57 58 59 60 61 63 64
33 34 33 32 32 32 31 31 30 30 30 30 29 29 30 31 32 32 30 28 25 27 31 32 38 40 41 42 44 45 44 48 50 53 55 55 56 57 58 59 60 60 62
35 32 31 30 30 30 30 29 28 28 29 29 29 29 29 30 31 31 31 30 28 21 24 31 31 37 38 39 41 41 43 43 45 46 48 51 53 55 57 58 59 59 61
31 30 29 29 29 28 28 27 27 28 27 28 29 28 28 28 28 28 28 29 29 25 21 29 31 33 35 38 38 38 39 40 43 45 46 48 51 52 54 56 57 58 59
29 28 28 27 27 26 26 25 25 25 22 23 24 24 24 25 24 24 24 24 24 24 20 24 28 30 29 31 33 34 35 35 37 41 42 44 47 49 51 53 55 56 57
27 26 26 25 25 25 24 23 22 21 20 20 22 22 22 24 20 21 21 20 20 21 20 16 21 23 24 27 28 29 31 35 33 37 39 42 45 48 49 50 52 55 54
25 25 24 23 23 23 22 22 22 21 21 20 21 20 20 20 18 18 19 19 19 21 20 17 16 21 22 24 24 26 27 28 33 35 38 40 43 46 47 48 51 51 51
23 23 22 22 21 21 21 21 22 21 20 20 21 21 20 20 19 18 18 17 18 16 16 16 16 18 20 23 24 22 23 27 28 34 38 41 42 43 46 48 48 49 49
22 22 20 20 20 19 20 19 21 18 18 19 21 22 22 22 24 24 22 20 19 18 17 16 16 17 18 20 21 24 23 25 27 31 33 35 37 43 44 46 46 46 48
18 18 17 16 16 19 23 25 24 20 20 20 19 21 22 21 23 25 26 27 26 20 18 17 19 18 20 22 24 23 23 22 21 32 30 30 35 39 42 43 47 48 49
18 17 17 17 17 18 22 24 24 23 20 19 20 20 21 24 23 23 24 26 26 27 27 24 20 20 21 24 26 24 24 24 24 29 29 26 32 33 40 44 46 46 47
16 15 16 16 16 17 22 23 23 22 19 20 21 22 22 23 24 24 23 21 22 23 24 24 23 24 25 26 26 26 25 25 27 28 30 22 29 33 38 39 45 46 47
14 14 15 13 13 13 18 21 23 18 19 19 22 24 23 23 24 27 22 19 19 21 27 28 29 30 30 30 30 27 22 21 20 23 29 29 30 34 36 37 40 45 47
14 15 14 14 13 11 17 21 24 17 14 18 20 24 24 24 25 26 22 19 16 19 21 20 22 25 28 28 31 28 26 22 24 23 29 26 31 33 30 33 36 39 43
MSLP
1021.49 1021.62 1021.67 1021.78 1021.90 1021.95 1022.12 1022.13 1021.91 1021.73 1021.55 1021.18 1020.72 1020.46 1020.06 1019.58 1019.10 1018.64 1018.41 1018.02 1017.65 1017.29 1017.00 1016.79 1016.57 1016.54 1016.44 1016.17 1015.79 1015.41 1015.16 1015.07 1014.95 1014.82 1014.79 1015.05 1015.25 1015.37 1015.66 1016.05 1016.39 1016.65 1017.42
1021.60 1021.73 1021.71 1021.82 1022.01 1022.26 1022.27 1022.42 1022.33 1022.13 1021.80 1021.43 1020.93 1020.62 1020.20 1019.73 1019.11 1018.69 1018.11 1017.62 1017.36 1016.96 1016.82 1016.60 1016.46 1016.27 1016.06 1015.92 1015.69 1015.41 1014.88 1014.52 1014.46 1014.46 1014.32 1014.23 1014.41 1014.79 1014.98 1015.40 1015.84 1016.04 1016.54
1021.40 1021.51 1021.79 1021.95 1022.17 1022.31 1022.44 1022.41 1022.24 1022.02 1021.97 1021.43 1021.15 1020.57 1020.14 1019.72 1019.28 1018.66 1017.97 1017.36 1017.12 1016.86 1016.60 1016.40 1016.27 1016.17 1015.92 1015.51 1015.39 1015.21 1014.83 1014.26 1014.05 1013.90 1013.93 1013.80 1013.78 1013.93 1014.31 1014.60 1015.05 1015.47 1015.99
1021.40 1021.70 1021.89 1021.90 1022.00 1022.22 1022.43 1022.56 1022.49 1022.42 1022.22 1021.81 1021.37 1020.91 1020.33 1019.74 1018.98 1018.11 1017.65 1017.02 1016.75 1016.61 1016.42 1016.47 1016.33 1016.21 1015.86 1015.65 1015.29 1014.98 1014.79 1014.16 1013.75 1013.46 1013.30 1013.24 1013.29 1013.36 1013.42 1013.79 1014.23 1014.89 1015.29
1021.37 1021.62 1021.78 1022.02 1022.15 1022.50 1022.61 1022.50 1022.48 1022.62 1022.23 1021.93 1021.50 1020.84 1020.09 1019.34 1018.51 1017.64 1017.25 1016.58 1016.40 1016.02 1016.05 1015.89 1016.00 1015.83 1015.67 1015.41 1015.13 1014.78 1014.34 1014.24 1013.93 1013.43 1012.94 1012.60 1012.57 1012.71 1012.82 1012.93 1013.34 1014.14 1014.41
1021.43 1021.73 1021.83 1021.94 1022.11 1022.40 1022.62 1022.71 1022.92 1022.73 1022.47 1021.99 1021.36 1020.90 1019.88 1018.71 1017.72 1017.40 1017.21 1016.35 1015.92 1015.66 1015.45 1015.51 1015.25 1015.27 1015.32 1015.18 1014.65 1014.62 1014.10 1013.75 1013.44 1013.20 1012.78 1012.36 1012.04 1011.94 1012.10 1012.29 1012.56 1013.19 1013.65
1021.24 1021.55 1021.65 1021.71 1021.91 1022.30 1022.59 1022.88 1022.92 1022.81 1022.23 1021.93 1021.48 1020.91 1019.58 1018.31 1017.78 1017.38 1016.88 1016.58 1016.09 1015.62 1015.19 1015.10 1015.08 1015.08 1014.91 1014.69 1014.48 1014.19 1013.92 1013.52 1013.02 1012.54 1011.97 1011.75 1011.66 1011.41 1011.29 1011.53 1011.77 1012.29 1012.68
1020.90 1021.09 1021.18 1021.55 1021.90 1022.34 1022.56 1022.73 1022.85 1022.77 1022.56 1022.05 1022.24 1022.07 1020.55 1018.45 1017.59 1017.29 1016.89 1016.37 1015.97 1015.79 1015.51 1015.12 1015.28 1014.96 1014.61 1014.51 1014.45 1014.24 1013.89 1013.41 1012.88 1012.43 1012.06 1011.58 1010.98 1010.65 1010.57 1010.61 1010.95 1011.16 1011.62
1020.70 1020.87 1020.99 1021.46 1021.87 1022.24 1022.59 1022.68 1022.71 1022.78 1022.99 1022.43 1022.46 1022.76 1021.72 1020.47 1019.34 1017.24 1017.02 1016.41 1016.37 1016.04 1015.68 1015.29 1015.05 1014.97 1014.71 1014.34 1013.93 1013.92 1013.86 1013.60 1013.21 1012.95 1012.34 1011.73 1011.10 1010.62 1010.03 1009.68 1009.89 1010.21 1010.49
1020.05 1020.23 1020.44 1020.94 1021.55 1022.10 1022.55 1022.39 1022.26 1022.67 1022.98 1022.92 1022.44 1022.12 1022.30 1022.25 1021.19 1018.06 1016.73 1016.59 1016.71 1016.09 1015.69 1015.40 1014.89 1014.54 1014.30 1014.25 1013.80 1013.57 1013.56 1013.43 1012.97 1012.54 1011.90 1011.36 1010.73 1010.42 1010.05 1009.51 1008.76 1009.06 1009.37
1019.61 1019.70 1020.09 1020.66 1021.37 1021.87 1022.03 1022.26 1022.62 1022.76 1022.78 1022.72 1022.61 1022.76 1022.40 1022.42 1022.17 1021.27 1017.60 1016.44 1016.74 1016.36 1015.94 1015.48 1014.85 1014.38 1014.29 1013.71 1013.30 1013.05 1012.52 1012.17 1011.80 1011.68 1011.31 1010.64 1010.21 1009.99 1009.74 1009.33 1008.78 1008.04 1008.12
1019.17 1019.40 1019.72 1020.29 1020.87 1021.41 1021.82 1021.98 1022.37 1022.60 1022.63 1022.39 1022.15 1022.18 1022.38 1022.50 1022.05 1021.74 1020.41 1017.82 1017.38 1015.57 1015.67 1015.26 1014.72 1014.15 1013.62 1013.31 1012.87 1012.11 1011.86 1011.78 1011.51 1011.07 1010.44 1009.90 1009.61 1009.38 1009.11 1008.61 1008.40 1008.02 1007.34
1018.71 1018.92 1019.21 1019.96 1020.42 1020.92 1021.40 1021.78 1022.06 1022.32 1022.31 1022.24 1022.17 1022.17 1022.12 1022.22 1021.89 1021.61 1021.16 1018.98 1017.73 1015.50 1015.62 1014.69 1014.34 1013.65 1013.09 1012.49 1011.98 1011.79 1011.29 1010.85 1010.52 1010.16 1009.69 1009.23 1008.68 1008.16 1008.05 1007.89 1007.66 1007.52 1007.11
1017.76 1018.05 1018.66 1019.55 1020.20 1020.71 1021.22 1021.50 1021.75 1021.79 1021.83 1021.74 1021.65 1021.68 1021.79 1021.65 1021.55 1021.27 1021.21 1020.63 1018.33 1016.32 1014.83 1014.17 1013.77 1013.39 1012.86 1012.38 1011.90 1011.38 1011.24 1010.82 1010.19 1009.59 1008.69 1008.24 1007.71 1007.18 1006.89 1006.84 1006.57 1006.57 1006.37
1017.21 1017.76 1018.61 1019.34 1019.97 1020.52 1020.92 1021.18 1021.25 1021.36 1021.57 1021.57 1021.53 1021.58 1021.48 1021.40 1021.36 1021.11 1020.96 1020.88 1020.53 1018.08 1014.33 1011.96 1013.43 1013.21 1013.06 1012.54 1011.87 1011.27 1010.57 1010.46 1010.00 1009.34 1008.48 1007.64 1007.13 1006.22 1005.68 1005.50 1005.43 1005.35 1005.27
1016.83 1017.52 1018.35 1019.08 1019.80 1020.31 1020.63 1020.90 1020.94 1021.05 1021.20 1021.21 1021.45 1021.26 1021.18 1020.90 1020.91 1020.61 1020.56 1020.31 1020.12 1019.50 1017.27 1013.50 1011.94 1012.92 1012.89 1012.27 1011.64 1011.07 1010.36 1009.95 1009.15 1008.30 1007.53 1006.81 1005.99 1005.40 1004.83 1004.38 1004.03 1004.02 1004.14
1016.29 1017.05 1017.97 1018.87 1019.51 1019.89 1020.25 1020.51 1020.55 1020.75 1021.09 1021.19 1021.31 1021.26 1020.82 1020.72 1020.39 1020.47 1020.19 1020.09 1019.60 1019.45 1018.09 1013.44 1013.36 1012.21 1012.39 1012.03 1011.38 1010.91 1010.20 1009.27 1008.31 1007.46 1006.95 1006.17 1004.95 1004.41 1003.79 1003.13 1002.83 1002.54 1002.69
1016.33 1017.22 1018.29 1019.02 1019.54 1019.93 1020.29 1020.47 1020.35 1020.67 1021.06 1020.94 1020.95 1020.90 1020.61 1020.38 1020.27 1020.25 1020.13 1019.53 1019.15 1018.90 1018.16 1016.43 1013.65 1012.87 1011.85 1011.68 1011.22 1010.28 1009.40 1008.50 1007.67 1006.69 1006.00 1004.84 1003.83 1002.68 1002.08 1001.76 1001.56 1001.14 1001.20
1016.26 1017.08 1017.98 1018.69 1019.29 1019.69 1020.16 1020.23 1020.43 1020.48 1020.60 1020.54 1020.64 1020.43 1020.21 1020.18 1020.01 1019.50 1019.30 1018.69 1018.27 1017.79 1017.29 1016.43 1014.18 1013.49 1012.00 1011.41 1010.45 1009.64 1008.57 1007.61 1006.55 1005.08 1003.98 1002.90 1002.04 1001.30 1000.92 1000.32 999.64 999.35 999.51
1016.40 1017.11 1017.91 1018.51 1019.01 1019.67 1019.77 1019.72 1020.04 1020.33 1020.39 1020.42 1020.17 1019.89 1019.44 1019.30 1019.07 1018.58 1018.12 1017.53 1017.03 1016.42 1016.02 1015.10 1013.92 1012.66 1011.79 1010.61 1009.73 1008.67 1006.88 1006.29 1004.55 1003.59 1002.33 1000.96 1000.16 999.41 998.68 998.41 998.29 997.70 997.85
1016.40 1017.12 1017.68 1018.47 1019.00 1019.17 1019.36 1019.70 1019.71 1019.90 1020.15 1019.78 1019.45 1018.90 1018.70 1018.27 1017.86 1017.35 1016.55 1015.92 1015.54 1014.85 1014.21 1013.26 1012.01 1011.18 1010.32 1009.63 1008.67 1007.63 1006.05 1005.17 1003.33 1002.90 1001.22 1000.06 998.74 997.26 996.36 996.66 996.25 996.15 996.29
1015.93 1016.80 1017.45 1018.15 1018.41 1018.59 1018.95 1019.05 1019.17 1019.22 1019.25 1019.05 1018.52 1018.03 1017.70 1017.33 1016.89 1016.24 1015.31 1014.51 1013.94 1013.08 1012.25 1011.45 1010.10 1009.01 1008.17 1007.69 1007.06 1006.38 1005.43 1004.31 1001.60 1001.82 1000.78 999.01 998.24 995.67 995.58 994.96 994.35 994.56 994.30
1015.81 1016.64 1017.09 1017.77 1017.89 1018.31 1018.55 1018.55 1018.54 1018.26 1018.55 1018.38 1017.91 1017.40 1016.58 1016.07 1015.58 1014.64 1013.71 1012.92 1012.21 1011.75 1010.87 1009.78 1008.40 1007.75 1006.69 1006.35 1005.66 1004.65 1003.94 1003.15 1001.27 999.81 1000.57 998.70 998.02 996.78 995.28 993.99 993.35 992.93 993.08
1015.27 1015.90 1016.61 1016.98 1017.44 1017.92 1017.85 1017.83 1017.73 1017.74 1017.85 1017.55 1017.15 1016.22 1015.39 1014.70 1014.22 1013.45 1012.35 1011.24 1010.35 1009.53 1009.02 1008.29 1006.99 1005.70 1005.08 1004.62 1004.20 1003.29 1002.56 1001.74 1000.40 999.27 1000.17 998.77 996.94 995.72 994.26 993.35 992.49 991.87 991.64
1014.56 1015.18 1015.65 1016.57 1017.11 1017.38 1017.32 1016.95 1016.82 1017.01 1016.88 1016.72 1016.08 1015.10 1014.49 1013.76 1013.31 1012.34 1011.19 1009.91 1008.63 1007.60 1006.99 1006.20 1005.00 1003.75 1002.94 1002.42 1002.22 1001.81 1000.64 1000.41 998.49 997.39 997.99 997.49 995.52 994.15 993.03 991.94 990.71 990.33 990.02
1013.55 1014.50 1015.19 1015.43 1016.25 1016.63 1016.53 1016.18 1015.99 1016.01 1015.86 1015.54 1015.06 1014.29 1013.92 1013.12 1012.26 1011.13 1010.00 1008.80 1007.23 1006.04 1005.21 1004.23 1003.06 1001.68 1000.92 1000.45 1000.23 999.83 999.01 998.20 997.16 995.26 995.71 996.43 994.32 992.86 991.64 990.14 989.88 989.75 988.56
Wind_Speed
3 3 3 3 4 5 4 5 5 5 6 6 6 6 7 7 7 4 4 11 15 19 20 21 21 22 23 24 26 24 22 21 20 18 17 18 19 21 23 24 25 24 23
3 3 3 4 4 4 4 4 5 5 5 5 6 7 7 7 8 8 7 6 13 17 20 21 21 22 22 24 25 27 27 23 21 21 19 19 20 20 24 26 26 26 26
4 3 3 3 3 3 3 3 4 4 5 5 6 6 7 8 9 9 8 6 6 11 15 18 20 22 23 22 24 26 27 26 24 22 21 21 20 21 24 26 27 27 27
4 3 2 2 3 3 3 3 4 4 5 5 5 6 6 7 11 11 9 6 5 4 6 14 20 22 22 23 24 25 27 27 25 25 23 20 22 23 23 26 29 28 27
4 3 2 2 3 2 2 3 3 4 4 5 7 7 8 9 10 9 11 7 7 5 4 8 13 15 19 21 23 25 25 27 29 27 25 23 20 24 25 26 28 28 30
5 3 2 3 3 2 3 3 4 3 4 6 8 10 10 11 9 7 7 8 6 6 5 6 5 5 11 20 22 24 23 24 26 25 27 26 25 23 25 26 27 29 29
5 4 3 3 3 2 2 3 3 5 3 4 5 5 10 10 8 5 4 5 6 6 6 5 4 3 5 14 19 21 26 30 28 27 23 25 28 26 24 27 28 30 33
6 5 5 3 1 0 2 3 4 3 3 2 3 6 5 6 3 12 11 6 6 4 5 5 7 9 6 5 10 23 25 27 29 26 25 28 23 27 28 25 30 32 33
6 5 5 4 2 0 2 2 3 4 3 3 4 3 5 4 10 4 7 7 5 5 6 9 7 9 11 5 9 13 21 25 28 31 33 32 31 28 27 29 28 32 34
7 7 6 4 3 1 2 3 3 2 2 4 3 3 2 4 5 11 2 7 10 10 7 8 10 6 9 11 11 14 21 25 26 26 27 33 28 30 30 30 28 32 35
7 6 6 5 3 2 3 2 4 5 3 3 3 3 2 3 5 6 19 7 8 10 9 9 10 10 12 8 10 17 22 20 24 28 28 26 29 35 35 33 29 29 33
5 7 7 6 5 4 3 2 3 5 5 5 3 3 4 4 4 5 9 18 16 12 10 11 11 11 10 11 18 20 23 28 30 29 29 29 30 32 37 34 33 29 30
4 6 6 6 4 3 1 2 3 5 4 4 5 4 3 5 5 7 9 15 15 14 11 11 12 11 10 11 11 18 24 25 29 31 31 31 33 34 33 33 32 32 27
6 7 7 6 4 3 1 2 3 4 5 4 6 5 6 6 6 7 8 10 16 18 16 19 9 10 10 10 14 18 14 25 30 32 32 33 33 34 31 33 33 32 30
6 7 7 6 4 3 3 3 3 4 4 4 5 6 7 7 7 7 7 8 11 18 24 16 13 8 11 12 15 14 14 20 30 34 35 34 33 32 34 33 36 33 33
7 7 6 5 3 3 2 3 3 3 4 4 5 7 8 7 7 6 7 8 9 11 20 17 17 16 15 14 17 18 20 30 32 34 34 37 32 31 31 35 36 34 34
8 7 7 5 4 3 3 4 3 3 4 6 8 9 11 10 8 8 8 9 10 11 15 24 18 20 20 19 16 16 18 19 17 33 37 39 37 37 35 32 37 35 34
7 7 6 5 4 3 3 4 4 3 5 9 10 10 12 9 10 10 9 12 12 12 13 21 22 19 22 18 19 21 17 16 18 30 43 42 40 35 35 35 38 39 31
8 7 7 6 5 4 4 4 5 7 8 8 9 11 11 11 12 10 12 12 12 11 12 14 18 15 18 16 18 18 20 19 17 34 39 41 41 39 40 39 37 32 28
9 7 6 6 5 4 5 6 8 7 7 9 10 11 12 13 14 14 13 14 14 14 14 15 16 16 15 15 15 15 17 13 16 15 25 27 29 33 34 35 29 27 28
7 6 6 5 5 4 5 7 7 6 9 10 11 12 12 15 23 23 14 14 14 13 13 14 16 15 15 15 16 13 16 15 18 15 15 14 16 15 12 19 24 29 30
8 7 6 6 7 5 11 12 10 7 9 12 12 12 12 16 20 27 29 32 27 18 18 15 16 18 20 17 16 15 16 15 18 11 9 16 15 6 8 9 15 27 27
9 9 7 7 6 7 12 11 12 7 9 10 13 14 14 12 17 18 25 32 31 33 34 24 23 21 22 20 19 19 18 17 19 16 13 18 13 15 13 12 22 23 23
10 9 7 6 6 6 11 10 11 8 8 12 14 14 15 16 16 19 20 20 20 18 19 18 23 23 22 20 20 20 21 21 19 17 12 18 14 16 13 9 22 24 25
9 8 7 6 7 6 10 9 10 5 8 11 13 13 13 15 24 29 21 21 21 19 21 35 39 40 40 40 34 18 17 17 18 16 11 14 14 16 10 13 14 26 27
10 7 7 7 7 6 9 9 9 4 5 8 10 12 17 21 28 31 22 18 21 19 18 21 22 26 30 26 38 24 15 18 16 19 11 13 16 9 7 5 3 6 5
Wind_Direction
74 59 54 44 33 32 21 356 345 339 330 316 314 312 315 312 302 298 289 293 298 305 305 304 302 297 293 289 285 284 276 273 271 250 241 239 239 224 212 206 201 191 196
92 67 57 40 39 36 3 339 328 320 313 311 317 316 308 306 300 295 293 294 295 297 301 302 299 296 293 291 289 284 280 275 270 270 245 236 234 232 217 210 205 198 195
90 69 71 59 60 29 356 336 329 334 319 317 311 305 303 294 295 284 285 285 289 294 292 296 301 301 297 294 291 288 281 279 278 269 267 248 236 234 226 214 208 203 198
106 99 102 78 49 23 359 350 329 327 316 312 308 298 281 283 281 286 286 278 276 287 304 300 298 296 298 296 293 290 287 286 278 275 268 259 251 244 231 223 216 209 200
131 134 121 84 58 24 354 336 340 329 314 312 304 302 296 286 280 281 282 284 269 263 257 270 282 284 291 298 296 292 289 287 280 283 280 266 253 250 243 230 222 214 203
147 138 106 79 72 37 355 357 328 299 290 294 307 300 292 283 286 285 271 275 272 278 281 263 262 261 274 291 298 295 291 287 287 278 277 281 269 251 248 239 226 215 212
160 149 119 82 56 47 311 302 280 292 297 303 319 316 288 279 278 292 311 309 291 273 291 298 297 278 285 293 309 315 308 301 292 293 283 268 272 271 252 246 235 222 209
167 147 126 122 127 96 311 298 290 315 288 340 329 296 313 300 20 327 305 297 302 315 309 333 322 307 303 305 291 295 298 305 301 301 311 303 292 268 264 250 245 228 222
153 157 147 148 148 52 274 285 313 307 299 317 303 265 326 304 331 273 299 286 309 322 305 306 301 309 297 287 302 299 294 288 296 297 296 295 292 293 292 261 244 240 223
170 163 150 140 156 188 267 265 262 268 275 267 313 254 291 317 329 316 270 335 294 276 277 301 288 294 310 303 284 301 296 291 296 288 286 284 288 292 290 291 260 242 232
170 160 153 148 163 196 233 282 297 274 257 261 236 279 270 269 264 274 299 289 299 302 297 297 292 291 286 283 294 285 275 276 293 281 282 281 278 283 288 280 282 261 240
171 167 159 153 172 189 231 231 275 284 278 273 268 264 253 259 281 289 292 298 297 298 293 289 285 281 278 283 284 285 291 285 280 282 279 277 277 271 276 275 275 275 260
169 175 151 160 156 157 206 263 269 267 271 263 266 262 265 268 275 276 280 287 295 294 295 282 278 277 273 274 283 293 282 283 283 278 279 279 274 269 264 268 272 273 271
160 151 142 142 145 158 194 235 246 248 258 258 268 266 268 263 261 262 269 290 299 294 293 282 278 275 283 288 285 300 305 296 296 287 270 267 270 266 253 267 272 268 265
152 147 142 142 148 178 210 232 237 250 266 280 273 272 270 271 271 272 271 271 275 294 291 294 296 294 291 288 284 296 292 300 296 295 294 293 286 278 264 255 263 262 260
150 143 139 143 160 184 207 246 248 258 267 274 278 279 277 276 276 280 277 272 263 268 279 284 288 294 298 291 288 290 292 289 286 292 288 284 282 277 275 267 253 255 259
147 142 146 160 179 202 229 244 253 279 277 273 272 270 271 276 276 276 273 271 268 263 267 286 286 296 293 292 292 294 290 288 282 279 278 283 278 271 272 272 263 252 249
136 136 141 157 184 214 229 241 255 256 256 264 265 267 271 281 279 276 272 268 266 267 271 276 286 293 291 294 288 285 287 287 286 282 281 278 269 271 261 264 262 249 238
140 144 155 174 191 209 229 251 261 259 259 261 266 268 275 274 271 268 267 269 268 269 267 268 276 282 287 292 287 282 280 277 271 275 275 269 266 266 266 265 261 242 236
146 154 165 176 183 213 238 245 253 258 264 267 271 270 272 269 270 271 265 263 263 261 259 260 264 271 273 280 276 281 279 275 278 277 277 270 269 266 256 256 250 248 236
150 153 155 170 200 222 238 241 248 256 264 275 274 276 274 269 271 275 280 275 269 263 261 261 261 262 264 270 269 276 277 286 280 282 279 280 273 265 234 241 242 237 236
152 156 168 185 207 225 245 249 258 255 272 286 285 279 278 278 272 278 282 284 281 279 275 271 270 262 260 261 264 268 270 273 284 277 288 294 301 251 268 256 254 238 227
162 175 181 196 212 229 250 254 264 282 283 282 282 284 283 276 279 279 277 280 280 277 274 276 274 269 274 273 272 272 269 271 276 285 294 289 296 290 271 270 261 246 257
169 173 186 193 210 234 248 259 279 282 271 275 276 280 284 288 290 293 291 286 281 275 271 263 264 267 263 263 264 269 272 273 272 274 270 272 281 266 274 260 263 257 242
165 170 164 185 212 236 257 264 279 264 269 273 282 292 296 303 297 303 302 292 285 283 279 278 275 274 266 259 256 262 257 260 262 265 254 269 270 270 261 271 261 248 233
158 157 179 182 205 225 249 258 284 247 263 275 283 305 305 309 307 307 304 302 294 294 295 283 271 264 265 266 267 272 275 269 272 267 256 260 258 253 264 233 284 301 291